owner,sensor,date,latitude,longitude,vertical_datum,sea_water_practical_salinity,qcFlag 
DISL,ioos:station:DISL:DISL:1,2012-03-01T00:00:00Z,30.2513,-88.0778,6.695,18.8,1111122 
DISL,ioos:station:DISL:DISL:1,2012-03-01T00:30:00Z,30.2513,-88.0778,6.592,18.05,1111122 
DISL,ioos:station:DISL:DISL:1,2012-03-01T01:00:00Z,30.2513,-88.0778,6.54,18.26,1111122 
DISL,ioos:station:DISL:DISL:1,2012-03-01T01:30:00Z,30.2513,-88.0778,6.455,18.43,1111122 
DISL,ioos:station:DISL:DISL:1,2012-03-01T02:00:00Z,30.2513,-88.0778,6.379,16.81,1111122 
DISL,ioos:station:DISL:DISL:1,2012-03-01T02:30:00Z,30.2513,-88.0778,6.302,18.99,1111122 
DISL,ioos:station:DISL:DISL:1,2012-03-01T03:00:00Z,30.2513,-88.0778,6.252,19.46,1111122 
DISL,ioos:station:DISL:DISL:1,2012-03-01T03:30:00Z,30.2513,-88.0778,6.217,12.8,1111122 
DISL,ioos:station:DISL:DISL:1,2012-03-01T04:00:00Z,30.2513,-88.0778,6.106,13.29,1111122 
DISL,ioos:station:DISL:DISL:1,2012-03-01T04:30:00Z,30.2513,-88.0778,6.024,13.9,1111122 
DISL,ioos:station:DISL:DISL:1,2012-03-01T05:00:00Z,30.2513,-88.0778,5.928,13.3,1111122 
DISL,ioos:station:DISL:DISL:1,2012-03-01T05:30:00Z,30.2513,-88.0778,5.899,13.39,1111122 
DISL,ioos:station:DISL:DISL:1,2012-03-01T06:00:00Z,30.2513,-88.0778,5.794,14.22,1111122 
DISL,ioos:station:DISL:DISL:1,2012-03-01T06:30:00Z,30.2513,-88.0778,5.702,14.29,1111122 
DISL,ioos:station:DISL:DISL:1,2012-03-01T07:00:00Z,30.2513,-88.0778,5.691,14.48,1111122 
DISL,ioos:station:DISL:DISL:1,2012-03-01T07:30:00Z,30.2513,-88.0778,5.66,14.79,1111122 
DISL,ioos:station:DISL:DISL:1,2012-03-01T08:00:00Z,30.2513,-88.0778,5.623,14.27,1111122 
DISL,ioos:station:DISL:DISL:1,2012-03-01T08:30:00Z,30.2513,-88.0778,5.622,15.9,1111122 
DISL,ioos:station:DISL:DISL:1,2012-03-01T09:00:00Z,30.2513,-88.0778,5.612,16.36,1111122 
DISL,ioos:station:DISL:DISL:1,2012-03-01T09:30:00Z,30.2513,-88.0778,5.588,16.53,1111122 
DISL,ioos:station:DISL:DISL:1,2012-03-01T10:00:00Z,30.2513,-88.0778,5.613,16.47,1111122 
DISL,ioos:station:DISL:DISL:1,2012-03-01T10:30:00Z,30.2513,-88.0778,5.626,14.98,1111122 
DISL,ioos:station:DISL:DISL:1,2012-03-01T11:00:00Z,30.2513,-88.0778,5.616,12.42,1111122 
DISL,ioos:station:DISL:DISL:1,2012-03-01T11:30:00Z,30.2513,-88.0778,5.696,16.39,1111122 
DISL,ioos:station:DISL:DISL:1,2012-03-01T12:00:00Z,30.2513,-88.0778,5.674,16.64,1111122 
DISL,ioos:station:DISL:DISL:1,2012-03-01T12:30:00Z,30.2513,-88.0778,5.709,17.34,1111122 
DISL,ioos:station:DISL:DISL:1,2012-03-01T13:00:00Z,30.2513,-88.0778,5.771,16.95,1111122 
DISL,ioos:station:DISL:DISL:1,2012-03-01T13:30:00Z,30.2513,-88.0778,5.86,15.49,1111122 
DISL,ioos:station:DISL:DISL:1,2012-03-01T14:00:00Z,30.2513,-88.0778,5.91,14.95,1111122 
DISL,ioos:station:DISL:DISL:1,2012-03-01T14:30:00Z,30.2513,-88.0778,5.961,15.94,1111122 
DISL,ioos:station:DISL:DISL:1,2012-03-01T15:00:00Z,30.2513,-88.0778,6.027,16.73,1111122 
DISL,ioos:station:DISL:DISL:1,2012-03-01T15:30:00Z,30.2513,-88.0778,6.084,16.48,1111122 
DISL,ioos:station:DISL:DISL:1,2012-03-01T16:00:00Z,30.2513,-88.0778,6.113,15.83,1111122 
DISL,ioos:station:DISL:DISL:1,2012-03-01T16:30:00Z,30.2513,-88.0778,6.171,15.57,1111122 
DISL,ioos:station:DISL:DISL:1,2012-03-01T17:00:00Z,30.2513,-88.0778,6.273,16.05,1111122 
DISL,ioos:station:DISL:DISL:1,2012-03-01T17:30:00Z,30.2513,-88.0778,6.351,16.77,1111122 
DISL,ioos:station:DISL:DISL:1,2012-03-01T18:00:00Z,30.2513,-88.0778,6.393,17.74,1111122 
DISL,ioos:station:DISL:DISL:1,2012-03-01T18:30:00Z,30.2513,-88.0778,6.48,17.65,1111122 
DISL,ioos:station:DISL:DISL:1,2012-03-01T19:00:00Z,30.2513,-88.0778,6.656,17.14,1111122 
DISL,ioos:station:DISL:DISL:1,2012-03-01T19:30:00Z,30.2513,-88.0778,6.753,16.89,1111122 
DISL,ioos:station:DISL:DISL:1,2012-03-01T20:00:00Z,30.2513,-88.0778,6.781,16.76,1111122 
DISL,ioos:station:DISL:DISL:1,2012-03-01T20:30:00Z,30.2513,-88.0778,6.786,16.83,1111122 
DISL,ioos:station:DISL:DISL:1,2012-03-01T21:00:00Z,30.2513,-88.0778,6.805,20.05,1111122 
DISL,ioos:station:DISL:DISL:1,2012-03-01T21:30:00Z,30.2513,-88.0778,6.828,20.04,1111122 
DISL,ioos:station:DISL:DISL:1,2012-03-01T22:00:00Z,30.2513,-88.0778,6.845,19.45,1111122 
DISL,ioos:station:DISL:DISL:1,2012-03-01T22:30:00Z,30.2513,-88.0778,6.852,19.16,1111122 
DISL,ioos:station:DISL:DISL:1,2012-03-01T23:00:00Z,30.2513,-88.0778,6.816,18.59,1111122 
DISL,ioos:station:DISL:DISL:1,2012-03-01T23:30:00Z,30.2513,-88.0778,6.815,18.52,1111122 
DISL,ioos:station:DISL:DISL:1,2012-03-02T00:00:00Z,30.2513,-88.0778,6.807,17.58,1111122 
DISL,ioos:station:DISL:DISL:1,2012-03-02T00:30:00Z,30.2513,-88.0778,6.754,17.16,1111122 
DISL,ioos:station:DISL:DISL:1,2012-03-02T01:00:00Z,30.2513,-88.0778,6.7,17.01,1111122 
DISL,ioos:station:DISL:DISL:1,2012-03-02T01:30:00Z,30.2513,-88.0778,6.682,17.07,1111122 
DISL,ioos:station:DISL:DISL:1,2012-03-02T02:00:00Z,30.2513,-88.0778,6.62,17.21,1111122 
DISL,ioos:station:DISL:DISL:1,2012-03-02T02:30:00Z,30.2513,-88.0778,6.546,17.21,1111122 
DISL,ioos:station:DISL:DISL:1,2012-03-02T03:00:00Z,30.2513,-88.0778,6.454,17.59,1111122 
DISL,ioos:station:DISL:DISL:1,2012-03-02T03:30:00Z,30.2513,-88.0778,6.334,19.28,1111122 
DISL,ioos:station:DISL:DISL:1,2012-03-02T04:00:00Z,30.2513,-88.0778,6.256,19.29,1111122 
DISL,ioos:station:DISL:DISL:1,2012-03-02T04:30:00Z,30.2513,-88.0778,6.194,19.54,1111122 
DISL,ioos:station:DISL:DISL:1,2012-03-02T05:00:00Z,30.2513,-88.0778,6.124,19.91,1111122 
DISL,ioos:station:DISL:DISL:1,2012-03-02T05:30:00Z,30.2513,-88.0778,6.03,19.57,1111122 
DISL,ioos:station:DISL:DISL:1,2012-03-02T06:00:00Z,30.2513,-88.0778,5.979,19.63,1111122 
DISL,ioos:station:DISL:DISL:1,2012-03-02T06:30:00Z,30.2513,-88.0778,5.943,19.79,1111122 
DISL,ioos:station:DISL:DISL:1,2012-03-02T07:00:00Z,30.2513,-88.0778,5.875,19.28,1111122 
DISL,ioos:station:DISL:DISL:1,2012-03-02T07:30:00Z,30.2513,-88.0778,5.825,18.79,1111122 
DISL,ioos:station:DISL:DISL:1,2012-03-02T08:00:00Z,30.2513,-88.0778,5.796,18.71,1111122 
DISL,ioos:station:DISL:DISL:1,2012-03-02T08:30:00Z,30.2513,-88.0778,5.757,16.05,1111122 
DISL,ioos:station:DISL:DISL:1,2012-03-02T09:00:00Z,30.2513,-88.0778,5.768,15.18,1111122 
DISL,ioos:station:DISL:DISL:1,2012-03-02T09:30:00Z,30.2513,-88.0778,5.697,13.22,1111122 
DISL,ioos:station:DISL:DISL:1,2012-03-02T10:00:00Z,30.2513,-88.0778,5.694,13.08,1111122 
DISL,ioos:station:DISL:DISL:1,2012-03-02T10:30:00Z,30.2513,-88.0778,5.698,13.03,1111122 
DISL,ioos:station:DISL:DISL:1,2012-03-02T11:00:00Z,30.2513,-88.0778,5.66,13.41,1111122 
DISL,ioos:station:DISL:DISL:1,2012-03-02T11:30:00Z,30.2513,-88.0778,5.744,13.42,1111122 
DISL,ioos:station:DISL:DISL:1,2012-03-02T12:00:00Z,30.2513,-88.0778,5.8,15.73,1111122 
DISL,ioos:station:DISL:DISL:1,2012-03-02T12:30:00Z,30.2513,-88.0778,5.819,16.35,1111122 
DISL,ioos:station:DISL:DISL:1,2012-03-02T13:00:00Z,30.2513,-88.0778,5.889,16.0,1111122 
DISL,ioos:station:DISL:DISL:1,2012-03-02T13:30:00Z,30.2513,-88.0778,5.944,16.18,1111122 
DISL,ioos:station:DISL:DISL:1,2012-03-02T14:00:00Z,30.2513,-88.0778,6.015,16.03,1111122 
DISL,ioos:station:DISL:DISL:1,2012-03-02T14:30:00Z,30.2513,-88.0778,6.076,15.48,1111122 
DISL,ioos:station:DISL:DISL:1,2012-03-02T15:00:00Z,30.2513,-88.0778,6.123,14.9,1111122 
DISL,ioos:station:DISL:DISL:1,2012-03-02T15:30:00Z,30.2513,-88.0778,6.212,15.11,1111122 
DISL,ioos:station:DISL:DISL:1,2012-03-02T16:00:00Z,30.2513,-88.0778,6.307,15.83,1111122 
DISL,ioos:station:DISL:DISL:1,2012-03-02T16:30:00Z,30.2513,-88.0778,6.392,16.57,1111122 
DISL,ioos:station:DISL:DISL:1,2012-03-02T17:00:00Z,30.2513,-88.0778,6.466,17.27,1111122 
DISL,ioos:station:DISL:DISL:1,2012-03-02T17:30:00Z,30.2513,-88.0778,6.564,17.96,1111122 
DISL,ioos:station:DISL:DISL:1,2012-03-02T18:00:00Z,30.2513,-88.0778,6.568,18.29,1111122 
DISL,ioos:station:DISL:DISL:1,2012-03-02T18:30:00Z,30.2513,-88.0778,6.678,18.32,1111122 
DISL,ioos:station:DISL:DISL:1,2012-03-02T19:00:00Z,30.2513,-88.0778,6.737,18.2,1111122 
DISL,ioos:station:DISL:DISL:1,2012-03-02T19:30:00Z,30.2513,-88.0778,6.796,18.12,1111122 
DISL,ioos:station:DISL:DISL:1,2012-03-02T20:00:00Z,30.2513,-88.0778,6.833,19.72,1111122 
DISL,ioos:station:DISL:DISL:1,2012-03-02T20:30:00Z,30.2513,-88.0778,6.912,21.54,1111122 
DISL,ioos:station:DISL:DISL:1,2012-03-02T21:00:00Z,30.2513,-88.0778,6.948,21.45,1111122 
DISL,ioos:station:DISL:DISL:1,2012-03-02T21:30:00Z,30.2513,-88.0778,7.0,22.39,1111122 
DISL,ioos:station:DISL:DISL:1,2012-03-02T22:00:00Z,30.2513,-88.0778,7.0,21.24,1111122 
DISL,ioos:station:DISL:DISL:1,2012-03-02T22:30:00Z,30.2513,-88.0778,7.08,19.39,1111122 
DISL,ioos:station:DISL:DISL:1,2012-03-02T23:00:00Z,30.2513,-88.0778,7.08,18.4,1111122 
DISL,ioos:station:DISL:DISL:1,2012-03-02T23:30:00Z,30.2513,-88.0778,7.08,18.4,1111122 
DISL,ioos:station:DISL:DISL:1,2012-03-03T00:00:00Z,30.2513,-88.0778,7.07,18.51,1111122 
DISL,ioos:station:DISL:DISL:1,2012-03-03T00:30:00Z,30.2513,-88.0778,7.04,18.68,1111122 
DISL,ioos:station:DISL:DISL:1,2012-03-03T01:00:00Z,30.2513,-88.0778,7.03,18.86,1111122 
DISL,ioos:station:DISL:DISL:1,2012-03-03T01:30:00Z,30.2513,-88.0778,6.991,18.94,1111122 
DISL,ioos:station:DISL:DISL:1,2012-03-03T02:00:00Z,30.2513,-88.0778,6.974,19.05,1111122 
DISL,ioos:station:DISL:DISL:1,2012-03-03T02:30:00Z,30.2513,-88.0778,6.947,19.0,1111122 
DISL,ioos:station:DISL:DISL:1,2012-03-03T03:00:00Z,30.2513,-88.0778,6.849,19.87,1111122 
DISL,ioos:station:DISL:DISL:1,2012-03-03T03:30:00Z,30.2513,-88.0778,6.774,21.44,1111122 
DISL,ioos:station:DISL:DISL:1,2012-03-03T04:00:00Z,30.2513,-88.0778,6.686,21.93,1111122 
DISL,ioos:station:DISL:DISL:1,2012-03-03T04:30:00Z,30.2513,-88.0778,6.608,24.03,1111122 
DISL,ioos:station:DISL:DISL:1,2012-03-03T05:00:00Z,30.2513,-88.0778,6.474,25.55,1111122 
DISL,ioos:station:DISL:DISL:1,2012-03-03T05:30:00Z,30.2513,-88.0778,6.385,26.33,1111122 
DISL,ioos:station:DISL:DISL:1,2012-03-03T06:00:00Z,30.2513,-88.0778,6.34,26.74,1111122 
DISL,ioos:station:DISL:DISL:1,2012-03-03T06:30:00Z,30.2513,-88.0778,6.287,26.78,1111122 
DISL,ioos:station:DISL:DISL:1,2012-03-03T07:00:00Z,30.2513,-88.0778,6.216,26.51,1111122 
DISL,ioos:station:DISL:DISL:1,2012-03-03T07:30:00Z,30.2513,-88.0778,6.151,25.19,1111122 
DISL,ioos:station:DISL:DISL:1,2012-03-03T08:00:00Z,30.2513,-88.0778,6.086,20.78,1111122 
DISL,ioos:station:DISL:DISL:1,2012-03-03T08:30:00Z,30.2513,-88.0778,6.058,21.57,1111122 
DISL,ioos:station:DISL:DISL:1,2012-03-03T09:00:00Z,30.2513,-88.0778,5.966,21.29,1111122 
DISL,ioos:station:DISL:DISL:1,2012-03-03T09:30:00Z,30.2513,-88.0778,5.898,24.06,1111122 
DISL,ioos:station:DISL:DISL:1,2012-03-03T10:00:00Z,30.2513,-88.0778,5.89,23.7,1111122 
DISL,ioos:station:DISL:DISL:1,2012-03-03T10:30:00Z,30.2513,-88.0778,5.901,21.54,1111122 
DISL,ioos:station:DISL:DISL:1,2012-03-03T11:00:00Z,30.2513,-88.0778,5.871,21.09,1111122 
DISL,ioos:station:DISL:DISL:1,2012-03-03T11:30:00Z,30.2513,-88.0778,5.858,21.61,1111122 
DISL,ioos:station:DISL:DISL:1,2012-03-03T12:00:00Z,30.2513,-88.0778,5.928,21.74,1111122 
DISL,ioos:station:DISL:DISL:1,2012-03-03T12:30:00Z,30.2513,-88.0778,5.983,22.36,1111122 
DISL,ioos:station:DISL:DISL:1,2012-03-03T13:00:00Z,30.2513,-88.0778,5.921,22.66,1111122 
DISL,ioos:station:DISL:DISL:1,2012-03-03T13:30:00Z,30.2513,-88.0778,6.232,20.68,1111122 
DISL,ioos:station:DISL:DISL:1,2012-03-03T14:00:00Z,30.2513,-88.0778,6.748,21.39,1111122 
DISL,ioos:station:DISL:DISL:1,2012-03-03T14:30:00Z,30.2513,-88.0778,6.115,21.35,1111122 
DISL,ioos:station:DISL:DISL:1,2012-03-03T15:00:00Z,30.2513,-88.0778,6.315,21.38,1111122 
DISL,ioos:station:DISL:DISL:1,2012-03-03T15:30:00Z,30.2513,-88.0778,6.06,21.82,1111122 
DISL,ioos:station:DISL:DISL:1,2012-03-03T16:00:00Z,30.2513,-88.0778,6.642,21.44,1111122 
DISL,ioos:station:DISL:DISL:1,2012-03-03T16:30:00Z,30.2513,-88.0778,6.25,21.34,1111122 
DISL,ioos:station:DISL:DISL:1,2012-03-03T17:00:00Z,30.2513,-88.0778,6.432,21.16,1111122 
DISL,ioos:station:DISL:DISL:1,2012-03-03T17:30:00Z,30.2513,-88.0778,6.008,22.4,1111122 
DISL,ioos:station:DISL:DISL:1,2012-03-03T18:00:00Z,30.2513,-88.0778,6.414,21.87,1111122 
DISL,ioos:station:DISL:DISL:1,2012-03-03T18:30:00Z,30.2513,-88.0778,6.519,21.72,1111122 
DISL,ioos:station:DISL:DISL:1,2012-03-03T19:00:00Z,30.2513,-88.0778,6.4,20.53,1111122 
DISL,ioos:station:DISL:DISL:1,2012-03-03T19:30:00Z,30.2513,-88.0778,6.395,21.31,1111122 
DISL,ioos:station:DISL:DISL:1,2012-03-03T20:00:00Z,30.2513,-88.0778,6.421,21.29,1111122 
DISL,ioos:station:DISL:DISL:1,2012-03-03T20:30:00Z,30.2513,-88.0778,6.555,22.95,1111122 
DISL,ioos:station:DISL:DISL:1,2012-03-03T21:00:00Z,30.2513,-88.0778,6.546,21.38,1111122 
DISL,ioos:station:DISL:DISL:1,2012-03-03T21:30:00Z,30.2513,-88.0778,6.619,20.98,1111122 
DISL,ioos:station:DISL:DISL:1,2012-03-03T22:00:00Z,30.2513,-88.0778,6.842,21.36,1111122 
DISL,ioos:station:DISL:DISL:1,2012-03-03T22:30:00Z,30.2513,-88.0778,6.848,21.49,1111122 
DISL,ioos:station:DISL:DISL:1,2012-03-03T23:00:00Z,30.2513,-88.0778,7.13,21.52,1111122 
DISL,ioos:station:DISL:DISL:1,2012-03-03T23:30:00Z,30.2513,-88.0778,7.12,20.32,1111122 
DISL,ioos:station:DISL:DISL:1,2012-03-04T00:00:00Z,30.2513,-88.0778,7.19,19.76,1111122 
DISL,ioos:station:DISL:DISL:1,2012-03-04T00:30:00Z,30.2513,-88.0778,6.783,19.61,1111122 
DISL,ioos:station:DISL:DISL:1,2012-03-04T01:00:00Z,30.2513,-88.0778,7.01,19.51,1111122 
DISL,ioos:station:DISL:DISL:1,2012-03-04T01:30:00Z,30.2513,-88.0778,7.25,19.54,1111122 
DISL,ioos:station:DISL:DISL:1,2012-03-04T02:00:00Z,30.2513,-88.0778,7.03,19.52,1111122 
DISL,ioos:station:DISL:DISL:1,2012-03-04T02:30:00Z,30.2513,-88.0778,6.956,19.47,1111122 
DISL,ioos:station:DISL:DISL:1,2012-03-04T03:00:00Z,30.2513,-88.0778,6.835,15.3,1111122 
DISL,ioos:station:DISL:DISL:1,2012-03-04T03:30:00Z,30.2513,-88.0778,7.03,19.18,1111122 
DISL,ioos:station:DISL:DISL:1,2012-03-04T04:00:00Z,30.2513,-88.0778,7.08,15.56,1111122 
DISL,ioos:station:DISL:DISL:1,2012-03-04T04:30:00Z,30.2513,-88.0778,6.554,16.9,1111122 
DISL,ioos:station:DISL:DISL:1,2012-03-04T05:00:00Z,30.2513,-88.0778,6.461,18.64,1111122 
DISL,ioos:station:DISL:DISL:1,2012-03-04T05:30:00Z,30.2513,-88.0778,6.227,18.91,1111122 
DISL,ioos:station:DISL:DISL:1,2012-03-04T06:00:00Z,30.2513,-88.0778,6.629,18.94,1111122 
DISL,ioos:station:DISL:DISL:1,2012-03-04T06:30:00Z,30.2513,-88.0778,6.222,19.09,1111122 
DISL,ioos:station:DISL:DISL:1,2012-03-04T07:00:00Z,30.2513,-88.0778,6.06,19.15,1111122 
DISL,ioos:station:DISL:DISL:1,2012-03-04T07:30:00Z,30.2513,-88.0778,5.963,19.3,1111122 
DISL,ioos:station:DISL:DISL:1,2012-03-04T08:00:00Z,30.2513,-88.0778,5.815,19.27,1111122 
DISL,ioos:station:DISL:DISL:1,2012-03-04T08:30:00Z,30.2513,-88.0778,5.677,19.23,1111122 
DISL,ioos:station:DISL:DISL:1,2012-03-04T09:00:00Z,30.2513,-88.0778,5.584,17.92,1111122 
DISL,ioos:station:DISL:DISL:1,2012-03-04T09:30:00Z,30.2513,-88.0778,5.642,18.77,1111122 
DISL,ioos:station:DISL:DISL:1,2012-03-04T10:00:00Z,30.2513,-88.0778,5.593,18.92,1111122 
DISL,ioos:station:DISL:DISL:1,2012-03-04T10:30:00Z,30.2513,-88.0778,5.55,18.79,1111122 
DISL,ioos:station:DISL:DISL:1,2012-03-04T11:00:00Z,30.2513,-88.0778,5.554,18.84,1111122 
DISL,ioos:station:DISL:DISL:1,2012-03-04T11:30:00Z,30.2513,-88.0778,5.548,18.98,1111122 
DISL,ioos:station:DISL:DISL:1,2012-03-04T12:00:00Z,30.2513,-88.0778,5.589,19.06,1111122 
DISL,ioos:station:DISL:DISL:1,2012-03-04T12:30:00Z,30.2513,-88.0778,5.406,18.52,1111122 
DISL,ioos:station:DISL:DISL:1,2012-03-04T13:00:00Z,30.2513,-88.0778,5.494,18.01,1111122 
DISL,ioos:station:DISL:DISL:1,2012-03-04T13:30:00Z,30.2513,-88.0778,5.457,17.91,1111122 
DISL,ioos:station:DISL:DISL:1,2012-03-04T14:00:00Z,30.2513,-88.0778,5.518,17.91,1111122 
DISL,ioos:station:DISL:DISL:1,2012-03-04T14:30:00Z,30.2513,-88.0778,5.513,17.87,1111122 
DISL,ioos:station:DISL:DISL:1,2012-03-04T15:00:00Z,30.2513,-88.0778,5.522,12.67,1111122 
DISL,ioos:station:DISL:DISL:1,2012-03-04T15:30:00Z,30.2513,-88.0778,5.483,13.15,1111122 
DISL,ioos:station:DISL:DISL:1,2012-03-04T16:00:00Z,30.2513,-88.0778,5.516,16.58,1111122 
DISL,ioos:station:DISL:DISL:1,2012-03-04T16:30:00Z,30.2513,-88.0778,5.634,16.85,1111122 
DISL,ioos:station:DISL:DISL:1,2012-03-04T17:00:00Z,30.2513,-88.0778,5.704,16.26,1111122 
DISL,ioos:station:DISL:DISL:1,2012-03-04T17:30:00Z,30.2513,-88.0778,5.753,15.09,1111122 
DISL,ioos:station:DISL:DISL:1,2012-03-04T18:00:00Z,30.2513,-88.0778,5.87,15.11,1111122 
DISL,ioos:station:DISL:DISL:1,2012-03-04T18:30:00Z,30.2513,-88.0778,5.872,17.01,1111122 
DISL,ioos:station:DISL:DISL:1,2012-03-04T19:00:00Z,30.2513,-88.0778,5.834,17.33,1111122 
DISL,ioos:station:DISL:DISL:1,2012-03-04T19:30:00Z,30.2513,-88.0778,6.003,17.47,1111122 
DISL,ioos:station:DISL:DISL:1,2012-03-04T20:00:00Z,30.2513,-88.0778,6.046,17.55,1111122 
DISL,ioos:station:DISL:DISL:1,2012-03-04T20:30:00Z,30.2513,-88.0778,6.041,17.64,1111122 
DISL,ioos:station:DISL:DISL:1,2012-03-04T21:00:00Z,30.2513,-88.0778,6.046,17.28,1111122 
DISL,ioos:station:DISL:DISL:1,2012-03-04T21:30:00Z,30.2513,-88.0778,6.082,16.84,1111122 
DISL,ioos:station:DISL:DISL:1,2012-03-04T22:00:00Z,30.2513,-88.0778,6.001,16.66,1111122 
DISL,ioos:station:DISL:DISL:1,2012-03-04T22:30:00Z,30.2513,-88.0778,6.108,16.38,1111122 
DISL,ioos:station:DISL:DISL:1,2012-03-04T23:00:00Z,30.2513,-88.0778,6.127,16.3,1111122 
DISL,ioos:station:DISL:DISL:1,2012-03-04T23:30:00Z,30.2513,-88.0778,6.15,16.27,1111122 
DISL,ioos:station:DISL:DISL:1,2012-03-05T00:00:00Z,30.2513,-88.0778,6.129,15.91,1111122 
DISL,ioos:station:DISL:DISL:1,2012-03-05T00:30:00Z,30.2513,-88.0778,6.129,15.87,1111122 
DISL,ioos:station:DISL:DISL:1,2012-03-05T01:00:00Z,30.2513,-88.0778,6.151,15.79,1111122 
DISL,ioos:station:DISL:DISL:1,2012-03-05T01:30:00Z,30.2513,-88.0778,6.151,15.7,1111122 
DISL,ioos:station:DISL:DISL:1,2012-03-05T02:00:00Z,30.2513,-88.0778,6.175,15.79,1111122 
DISL,ioos:station:DISL:DISL:1,2012-03-05T02:30:00Z,30.2513,-88.0778,6.149,15.98,1111122 
DISL,ioos:station:DISL:DISL:1,2012-03-05T03:00:00Z,30.2513,-88.0778,6.141,16.08,1111122 
DISL,ioos:station:DISL:DISL:1,2012-03-05T03:30:00Z,30.2513,-88.0778,6.077,16.16,1111122 
DISL,ioos:station:DISL:DISL:1,2012-03-05T04:00:00Z,30.2513,-88.0778,5.964,16.18,1111122 
DISL,ioos:station:DISL:DISL:1,2012-03-05T04:30:00Z,30.2513,-88.0778,5.922,16.23,1111122 
DISL,ioos:station:DISL:DISL:1,2012-03-05T05:00:00Z,30.2513,-88.0778,5.888,16.28,1111122 
DISL,ioos:station:DISL:DISL:1,2012-03-05T05:30:00Z,30.2513,-88.0778,5.832,16.34,1111122 
DISL,ioos:station:DISL:DISL:1,2012-03-05T06:00:00Z,30.2513,-88.0778,5.7,16.37,1111122 
DISL,ioos:station:DISL:DISL:1,2012-03-05T06:30:00Z,30.2513,-88.0778,5.587,16.42,1111122 
DISL,ioos:station:DISL:DISL:1,2012-03-05T07:00:00Z,30.2513,-88.0778,5.516,16.45,1111122 
DISL,ioos:station:DISL:DISL:1,2012-03-05T07:30:00Z,30.2513,-88.0778,5.443,16.52,1111122 
DISL,ioos:station:DISL:DISL:1,2012-03-05T08:00:00Z,30.2513,-88.0778,5.38,16.53,1111122 
DISL,ioos:station:DISL:DISL:1,2012-03-05T08:30:00Z,30.2513,-88.0778,5.306,16.47,1111122 
DISL,ioos:station:DISL:DISL:1,2012-03-05T09:00:00Z,30.2513,-88.0778,5.297,16.52,1111122 
DISL,ioos:station:DISL:DISL:1,2012-03-05T09:30:00Z,30.2513,-88.0778,5.202,16.58,1111122 
DISL,ioos:station:DISL:DISL:1,2012-03-05T10:00:00Z,30.2513,-88.0778,5.15,16.6,1111122 
DISL,ioos:station:DISL:DISL:1,2012-03-05T10:30:00Z,30.2513,-88.0778,5.098,16.63,1111122 
DISL,ioos:station:DISL:DISL:1,2012-03-05T11:00:00Z,30.2513,-88.0778,5.039,16.65,1111122 
DISL,ioos:station:DISL:DISL:1,2012-03-05T11:30:00Z,30.2513,-88.0778,5.032,16.25,1111122 
DISL,ioos:station:DISL:DISL:1,2012-03-05T12:00:00Z,30.2513,-88.0778,5.015,16.29,1111122 
DISL,ioos:station:DISL:DISL:1,2012-03-05T12:30:00Z,30.2513,-88.0778,4.979,16.36,1111122 
DISL,ioos:station:DISL:DISL:1,2012-03-05T13:00:00Z,30.2513,-88.0778,4.997,16.36,1111122 
DISL,ioos:station:DISL:DISL:1,2012-03-05T13:30:00Z,30.2513,-88.0778,5.011,16.42,1111122 
DISL,ioos:station:DISL:DISL:1,2012-03-05T14:00:00Z,30.2513,-88.0778,5.062,16.39,1111122 
DISL,ioos:station:DISL:DISL:1,2012-03-05T14:30:00Z,30.2513,-88.0778,5.11,16.51,1111122 
DISL,ioos:station:DISL:DISL:1,2012-03-05T15:00:00Z,30.2513,-88.0778,5.129,16.68,1111122 
DISL,ioos:station:DISL:DISL:1,2012-03-05T15:30:00Z,30.2513,-88.0778,5.183,16.7,1111122 
DISL,ioos:station:DISL:DISL:1,2012-03-05T16:00:00Z,30.2513,-88.0778,5.226,16.76,1111122 
DISL,ioos:station:DISL:DISL:1,2012-03-05T16:30:00Z,30.2513,-88.0778,5.252,16.77,1111122 
DISL,ioos:station:DISL:DISL:1,2012-03-05T17:00:00Z,30.2513,-88.0778,5.288,16.79,1111122 
DISL,ioos:station:DISL:DISL:1,2012-03-05T17:30:00Z,30.2513,-88.0778,5.338,16.84,1111122 
DISL,ioos:station:DISL:DISL:1,2012-03-05T18:00:00Z,30.2513,-88.0778,5.394,16.85,1111122 
DISL,ioos:station:DISL:DISL:1,2012-03-05T18:30:00Z,30.2513,-88.0778,5.435,16.84,1111122 
DISL,ioos:station:DISL:DISL:1,2012-03-05T19:00:00Z,30.2513,-88.0778,5.469,16.84,1111122 
DISL,ioos:station:DISL:DISL:1,2012-03-05T19:30:00Z,30.2513,-88.0778,5.551,16.8,1111122 
DISL,ioos:station:DISL:DISL:1,2012-03-05T20:00:00Z,30.2513,-88.0778,5.613,16.56,1111122 
DISL,ioos:station:DISL:DISL:1,2012-03-05T20:30:00Z,30.2513,-88.0778,5.673,16.63,1111122 
DISL,ioos:station:DISL:DISL:1,2012-03-05T21:00:00Z,30.2513,-88.0778,5.79,16.76,1111122 
DISL,ioos:station:DISL:DISL:1,2012-03-05T21:30:00Z,30.2513,-88.0778,5.771,16.77,1111122 
DISL,ioos:station:DISL:DISL:1,2012-03-05T22:00:00Z,30.2513,-88.0778,5.801,19.05,1111122 
DISL,ioos:station:DISL:DISL:1,2012-03-05T22:30:00Z,30.2513,-88.0778,5.879,21.51,1111122 
DISL,ioos:station:DISL:DISL:1,2012-03-05T23:00:00Z,30.2513,-88.0778,5.932,20.5,1111122 
DISL,ioos:station:DISL:DISL:1,2012-03-05T23:30:00Z,30.2513,-88.0778,6.033,22.1,1111122 
DISL,ioos:station:DISL:DISL:1,2012-03-06T00:00:00Z,30.2513,-88.0778,6.09,21.57,1111122 
DISL,ioos:station:DISL:DISL:1,2012-03-06T00:30:00Z,30.2513,-88.0778,6.138,19.13,1111122 
DISL,ioos:station:DISL:DISL:1,2012-03-06T01:00:00Z,30.2513,-88.0778,6.185,19.95,1111122 
DISL,ioos:station:DISL:DISL:1,2012-03-06T01:30:00Z,30.2513,-88.0778,6.242,17.09,1111122 
DISL,ioos:station:DISL:DISL:1,2012-03-06T02:00:00Z,30.2513,-88.0778,6.267,17.18,1111122 
DISL,ioos:station:DISL:DISL:1,2012-03-06T02:30:00Z,30.2513,-88.0778,6.391,17.28,1111122 
DISL,ioos:station:DISL:DISL:1,2012-03-06T03:00:00Z,30.2513,-88.0778,6.224,16.24,1111122 
DISL,ioos:station:DISL:DISL:1,2012-03-06T03:30:00Z,30.2513,-88.0778,6.181,16.99,1111122 
DISL,ioos:station:DISL:DISL:1,2012-03-06T04:00:00Z,30.2513,-88.0778,6.124,17.02,1111122 
DISL,ioos:station:DISL:DISL:1,2012-03-06T04:30:00Z,30.2513,-88.0778,6.151,15.1,1111122 
DISL,ioos:station:DISL:DISL:1,2012-03-06T05:00:00Z,30.2513,-88.0778,6.059,13.03,1111122 
DISL,ioos:station:DISL:DISL:1,2012-03-06T05:30:00Z,30.2513,-88.0778,6.045,12.17,1111122 
DISL,ioos:station:DISL:DISL:1,2012-03-06T06:00:00Z,30.2513,-88.0778,5.924,11.53,1111122 
DISL,ioos:station:DISL:DISL:1,2012-03-06T06:30:00Z,30.2513,-88.0778,5.897,11.17,1111122 
DISL,ioos:station:DISL:DISL:1,2012-03-06T07:00:00Z,30.2513,-88.0778,5.79,11.29,1111122 
DISL,ioos:station:DISL:DISL:1,2012-03-06T07:30:00Z,30.2513,-88.0778,5.701,11.18,1111122 
DISL,ioos:station:DISL:DISL:1,2012-03-06T08:00:00Z,30.2513,-88.0778,5.629,11.08,1111122 
DISL,ioos:station:DISL:DISL:1,2012-03-06T08:30:00Z,30.2513,-88.0778,5.567,11.03,1111122 
DISL,ioos:station:DISL:DISL:1,2012-03-06T09:00:00Z,30.2513,-88.0778,5.341,11.02,1111122 
DISL,ioos:station:DISL:DISL:1,2012-03-06T09:30:00Z,30.2513,-88.0778,5.369,10.99,1111122 
DISL,ioos:station:DISL:DISL:1,2012-03-06T10:00:00Z,30.2513,-88.0778,5.317,10.95,1111122 
DISL,ioos:station:DISL:DISL:1,2012-03-06T10:30:00Z,30.2513,-88.0778,5.298,11.06,1111122 
DISL,ioos:station:DISL:DISL:1,2012-03-06T11:00:00Z,30.2513,-88.0778,5.271,11.07,1111122 
DISL,ioos:station:DISL:DISL:1,2012-03-06T11:30:00Z,30.2513,-88.0778,5.613,11.01,1111122 
DISL,ioos:station:DISL:DISL:1,2012-03-06T12:00:00Z,30.2513,-88.0778,5.474,11.0,1111122 
DISL,ioos:station:DISL:DISL:1,2012-03-06T12:30:00Z,30.2513,-88.0778,5.347,11.02,1111122 
DISL,ioos:station:DISL:DISL:1,2012-03-06T13:00:00Z,30.2513,-88.0778,5.227,10.98,1111122 
DISL,ioos:station:DISL:DISL:1,2012-03-06T13:30:00Z,30.2513,-88.0778,5.222,10.97,1111122 
DISL,ioos:station:DISL:DISL:1,2012-03-06T14:00:00Z,30.2513,-88.0778,5.373,10.96,1111122 